Change the Weather History Date:

Wednesday, May 1, 2013

  Actual Average (KDET) Record (KDET)
Temperature  
Mean Temperature 65 °F -  
Max Temperature 80 °F 64 °F 82 °F (1957)
Min Temperature 50 °F 44 °F 30 °F (1978)
Growing Degree Days 15 (Base 50)    
Moisture  
Dew Point 53 °F    
Average Humidity 65    
Maximum Humidity 97    
Minimum Humidity 37    
Precipitation  
Precipitation 0.00 in - - ()
Sea Level Pressure  
Sea Level Pressure 30.22 in    
Wind  
Wind Speed 3 mph (SE)    
Max Wind Speed 13 mph    
Max Gust Speed 17 mph    
Visibility 9 miles    
Events      
Averages and records for this station are not official NWS values.
T = Trace of Precipitation, MM = Missing Value Source: NWS Daily Summary

Daily Weather History Graph

Daily Weather History Graph

Search for Another Location

Airport or City:

Trip Planner

Search our weather history database for the weather conditions in past years. The results will help you decide how hot, cold, wet, or windy it might be!

Date:

Astronomy

May. 01, 2013 Rise Set
Actual Time 6:27 AM EDT 8:33 PM EDT
Civil Twilight 5:56 AM EDT 9:03 PM EDT
Nautical Twilight 5:18 AM EDT 9:41 PM EDT
Astronomical Twilight 4:37 AM EDT 10:23 PM EDT
Moon 1:42 AM EDT (5/1) 12:04 PM EDT (5/1)
Length of Visible Light 15h 07m
Length of Day
14h 05m
Waning Gibbous, 59% of the Moon is Illuminated
May 1
Waning Gibbous
May 2
Last Quarter
May 9
New
May 18
First Quarter
May 25
Full

Hourly Weather History & Observations

Time (EDT) Temp. Heat Index Dew Point Humidity Pressure Visibility Wind Dir Wind Speed Gust Speed Precip Events Conditions
12:14 AM 57.7 °F - 53.6 °F 86% 30.11 in 10.0 mi Calm Calm - N/A   Clear
12:35 AM 57.4 °F - 53.6 °F 87% 30.11 in 10.0 mi Calm Calm - N/A   Clear
12:54 AM 56.5 °F - 52.9 °F 88% 30.12 in 7.0 mi Calm Calm - N/A   Clear
1:15 AM 55.9 °F - 52.5 °F 88% 30.12 in 7.0 mi Calm Calm - N/A   Clear
1:35 AM 55.2 °F - 52.3 °F 90% 30.12 in 7.0 mi Calm Calm - N/A   Clear
1:54 AM 54.0 °F - 51.8 °F 92% 30.12 in 7.0 mi Calm Calm - N/A   Clear
2:15 AM 53.8 °F - 51.6 °F 92% 30.12 in 7.0 mi Calm Calm - N/A   Clear
2:35 AM 53.6 °F - 51.8 °F 94% 30.12 in 7.0 mi NE 3.5 mph - N/A   Clear
3:15 AM 53.1 °F - 51.3 °F 94% 30.13 in 5.0 mi Calm Calm - N/A   Clear
3:34 AM 53.1 °F - 51.4 °F 94% 30.13 in 5.0 mi North 3.5 mph - N/A   Clear
4:15 AM 52.3 °F - 50.9 °F 95% 30.15 in 4.0 mi Calm Calm - N/A   Clear
4:35 AM 52.2 °F - 50.9 °F 95% 30.15 in 5.0 mi ENE 3.5 mph - N/A   Clear
4:55 AM 52.2 °F - 50.5 °F 94% 30.15 in 5.0 mi Calm Calm - N/A   Clear
5:14 AM 51.8 °F - 50.2 °F 94% 30.16 in 5.0 mi Calm Calm - N/A   Clear
5:35 AM 50.9 °F - 50.0 °F 97% 30.16 in 4.0 mi Calm Calm - N/A   Clear
5:55 AM 50.5 °F - 49.3 °F 95% 30.17 in 5.0 mi Calm Calm - N/A   Clear
6:15 AM 50.9 °F - 49.5 °F 95% 30.18 in 5.0 mi Calm Calm - N/A   Clear
6:35 AM 50.5 °F - 49.1 °F 95% 30.19 in 4.0 mi NE 3.5 mph - N/A   Clear
6:55 AM 50.4 °F - 49.1 °F 95% 30.20 in 4.0 mi NNE 3.5 mph - N/A   Clear
7:15 AM 51.3 °F - 50.0 °F 95% 30.22 in 4.0 mi NE 3.5 mph - N/A   Clear
7:35 AM 52.9 °F - 50.5 °F 92% 30.22 in 5.0 mi ENE 3.5 mph - N/A   Clear
8:15 AM 56.1 °F - 51.8 °F 85% 30.24 in 7.0 mi Calm Calm - N/A   Clear
8:35 AM 57.2 °F - 52.2 °F 83% 30.24 in 10.0 mi Calm Calm - N/A   Clear
9:15 AM 61.3 °F - 53.4 °F 75% 30.25 in 10.0 mi Calm Calm - N/A   Clear
9:35 AM 63.7 °F - 54.5 °F 72% 30.24 in 10.0 mi Calm Calm - N/A   Clear
9:55 AM 66.2 °F - 54.5 °F 66% 30.25 in 10.0 mi SSE 5.8 mph - N/A   Clear
10:15 AM 67.3 °F - 54.3 °F 63% 30.25 in 10.0 mi SSE 5.8 mph - N/A   Clear
10:35 AM 68.7 °F - 54.7 °F 61% 30.25 in 10.0 mi SSE 4.6 mph - N/A   Clear
10:55 AM 69.6 °F - 54.9 °F 59% 30.25 in 10.0 mi SSE 4.6 mph - N/A   Clear
11:14 AM 70.7 °F - 54.9 °F 57% 30.25 in 10.0 mi SE 4.6 mph - N/A   Clear
11:35 AM 71.8 °F - 56.1 °F 58% 30.25 in 10.0 mi SSE 5.8 mph - N/A   Clear
12:14 PM 74.3 °F - 54.7 °F 50% 30.25 in 10.0 mi SE 4.6 mph - N/A   Clear
12:35 PM 75.6 °F - 54.9 °F 48% 30.25 in 10.0 mi SSE 6.9 mph - N/A   Clear
12:55 PM 76.3 °F - 54.1 °F 46% 30.24 in 10.0 mi South 9.2 mph - N/A   Clear
1:15 PM 77.4 °F - 53.8 °F 44% 30.24 in 10.0 mi SSE 9.2 mph - N/A   Clear
1:35 PM 78.3 °F - 54.0 °F 43% 30.23 in 10.0 mi SSE 8.1 mph - N/A   Clear
1:55 PM 79.5 °F - 54.3 °F 42% 30.23 in 10.0 mi SE 6.9 mph - N/A   Clear
2:15 PM 79.3 °F - 53.8 °F 41% 30.24 in 10.0 mi SSE 9.2 mph - N/A   Clear
2:35 PM 79.5 °F - 52.7 °F 39% 30.24 in 10.0 mi SE 8.1 mph 16.1 mph N/A   Clear
3:15 PM 80.1 °F - 52.3 °F 38% 30.24 in 10.0 mi SSE 9.2 mph 17.3 mph N/A   Clear
3:35 PM 80.6 °F - 52.9 °F 38% 30.24 in 10.0 mi SSE 8.1 mph - N/A   Clear
3:55 PM 80.8 °F 80.4 °F 54.0 °F 39% 30.24 in 10.0 mi ESE 10.4 mph - N/A   Clear
4:15 PM 80.4 °F 80.1 °F 53.1 °F 39% 30.23 in 10.0 mi SE 8.1 mph - N/A   Clear
4:35 PM 80.4 °F - 52.3 °F 38% 30.23 in 10.0 mi SE 4.6 mph - N/A   Clear
4:55 PM 80.8 °F - 52.2 °F 37% 30.23 in 10.0 mi SE 12.7 mph - N/A   Clear
5:15 PM 79.7 °F - 51.8 °F 38% 30.24 in 10.0 mi SE 6.9 mph - N/A   Clear
5:34 PM 80.6 °F - 52.2 °F 37% 30.24 in 10.0 mi SE 8.1 mph - N/A   Clear
5:55 PM 79.9 °F - 51.3 °F 37% 30.24 in 10.0 mi SSE 5.8 mph - N/A   Clear
6:14 PM 80.1 °F - 51.6 °F 37% 30.25 in 10.0 mi South 9.2 mph - N/A   Clear
6:35 PM 79.0 °F - 50.9 °F 37% 30.25 in 10.0 mi South 8.1 mph - N/A   Clear
6:55 PM 79.0 °F - 50.9 °F 37% 30.25 in 10.0 mi South 9.2 mph - N/A   Clear
7:15 PM 78.6 °F - 50.9 °F 38% 30.25 in 10.0 mi SSE 8.1 mph - N/A   Clear
7:35 PM 77.2 °F - 53.6 °F 44% 30.25 in 10.0 mi ESE 6.9 mph - N/A   Clear
7:54 PM 75.6 °F - 54.0 °F 47% 30.25 in 10.0 mi ESE 5.8 mph - N/A   Clear
8:15 PM 74.3 °F - 54.7 °F 50% 30.25 in 10.0 mi East 6.9 mph - N/A   Clear
8:35 PM 72.7 °F - 55.4 °F 55% 30.26 in 10.0 mi East 8.1 mph - N/A   Clear
8:54 PM 71.2 °F - 55.0 °F 56% 30.26 in 10.0 mi ESE 4.6 mph - N/A   Clear
9:15 PM 70.3 °F - 55.4 °F 59% 30.26 in 10.0 mi ESE 4.6 mph - N/A   Clear
9:35 PM 69.8 °F - 55.4 °F 60% 30.27 in 10.0 mi ESE 5.8 mph - N/A   Clear
9:54 PM 68.9 °F - 54.7 °F 60% 30.27 in 10.0 mi ESE 6.9 mph - N/A   Clear
10:35 PM 66.9 °F - 52.3 °F 59% 30.28 in 10.0 mi ESE 6.9 mph - N/A   Clear
10:54 PM 65.7 °F - 51.6 °F 60% 30.28 in 10.0 mi ESE 6.9 mph - N/A   Clear
11:15 PM 64.6 °F - 50.9 °F 61% 30.28 in 10.0 mi East 6.9 mph - N/A   Clear
11:34 PM 63.7 °F - 51.1 °F 64% 30.28 in 10.0 mi East 3.5 mph - N/A   Clear
11:55 PM 63.0 °F - 50.0 °F 63% 30.28 in 10.0 mi East 3.5 mph - N/A   Clear